Regional Weather Roundup
Issued by NWS

Home | Current Version | Previous Version | Text Only | Print | Product List | Glossary Off
Versions: 1 2 3 4 5 6 7 8 9 10 11 12 13 14 15 16 17 18 19 20 21 22 23 24 25 26 27 28 29 30 31 32 33 34 35 36 37 38 39 40 41 42 43 44 45 46 47 48 49 50

000
ASUS45 KTFX 290219
RWRMT
MONTANA HOURLY WEATHER ROUNDUP
NATIONAL WEATHER SERVICE GREAT FALLS MT
719 PM MST FRI NOV 28 2014

NOTE: "FAIR" INDICATES FEW OR NO CLOUDS BELOW 12000 FEET WITH NO
SIGNIFICANT WEATHER AND/OR OBSTRUCTIONS TO VISIBILITY.

* THESE STATIONS ARE NOT UNDER NWS QUALITY CONTROL. THEY DO NOT
   REPORT WEATHER SUCH AS PRECIPITATION OR FOG.

MTZ001>007-043-290300-
WEST OF THE DIVIDE
CITY           SKY/WX    TMP DP  RH WIND       PRES   REMARKS
KALISPELL      LGT RAIN  45  37  74 S13       29.26F
MISSOULA       CLOUDY    45  34  65 E6        29.42F
BUTTE          PTCLDY    45  18  34 SW13G24   29.48F
MULLAN PASS    SNOW      30  30 100 S10G24    29.29F VSB M1/4 WCI  21
* ESSEX        N/A       28  25  89 SE15G22    N/A   WCI  16
* EUREKA APT   CLOUDY    45  37  74 SE20G30   29.18F
* HAMILTON APT CLOUDY    46  32  58 S16       29.45F
* LIBBY APT    CLOUDY    43  39  86 SE6       29.23F
* LINCOLN      N/A       42  30  63 W4G17      N/A
* LOOKOUT PASS N/A       36  35  96 SE8G16     N/A   WCI  30
* POLSON       N/A       43  36  76 SW3G9      N/A
* RONAN APT    MOCLDY    48  34  59 SE16G23    N/A
* SEELEY LAKE  N/A       41  33  73 S7G17      N/A
* THOMP F APT  CLOUDY    38  17  42 S10G26     N/A   WCI  31
* YAAK HILL    N/A       43  40  89 SE6G14     N/A
$$

MTZ008-052>055-290300-
SOUTHWEST MONTANA
CITY           SKY/WX    TMP DP  RH WIND       PRES   REMARKS
BOZEMAN        CLOUDY    50  19  29 W5        29.47F
DILLON         MOCLDY    46  14  27 SW18      29.56R
* W YELLOWSTON MOCLDY    39  20  46 SW8G21     N/A   WCI  33
* ENNIS APT    MOCLDY    48  16  28 SE16       N/A
* THREE FORKS  CLOUDY    52  30  43 S15G25     N/A
* BOULDER HILL N/A       44  19  37 S16G21     N/A
* MONIDA PASS  N/A       36  15  42 SE12G18    N/A   WCI  28
* RAYNOLDS PAS N/A       40  23  51 SE28G38    N/A   WCI  29
* WHITEHALL    N/A       49  23  36 W3G15      N/A
* WISE RIVER   N/A       43  17  35 W15G24     N/A
$$

MTZ009>010-012-014-046-048-049-054-290300-
EAST SLOPES AND CENTRAL MONTANA
CITY           SKY/WX    TMP DP  RH WIND       PRES   REMARKS
CUT BANK       LGT SNOW  -4  -9  79 N21       29.58S VSB 1    WCI -28
GREAT FALLS    CLOUDY     7   3  83 N14       29.54R WCI -10
HELENA         CLOUDY    50  28  43 SW22G28   29.42F
MALMSTROM AFB  LGT SNOW   7   5  91 N15       29.58R WCI -10
* CONRAD       PTCLDY     3  -4  72 NW15G22    N/A   WCI -16
* DEARBORN     N/A       15  10  80 N/A        N/A
* EAST GLACIER N/A       -6 -10  82 E12G17     N/A   WCI -25
* MONARCH      N/A       44  19  37 SW15G24    N/A
* PENDROY      N/A       -2  -4  91 N18G26     N/A   WCI -24
* ROGERS PASS  N/A       40  29  65 SE9G20     N/A   WCI  34
* SAINT MARY   N/A       -7 -13  75 NE6G14     N/A   WCI -20
* SWEET GRASS  N/A       -6 -10  82 N23        N/A   WCI -31
* WHITE SULPH  N/A       48  24  39 SW12G22    N/A
$$

MTZ011-013-016-021-035-040-045-047-050-051-290300-
NORTH CENTRAL MONTANA
CITY           SKY/WX    TMP DP  RH WIND       PRES   REMARKS
HAVRE          CLOUDY     3  -2  79 NW15G23   29.64R WCI -16
LEWISTOWN      CLOUDY    19  18  96 W14       29.43R WCI   5
* N BAR RANCH  CLEAR     54  23  30 W21G43    29.37F
* CHINOOK      CLOUDY     7   1  76 W14       29.63R WCI -10
* FORT BENTON  CLOUDY     7   1  76 NW8       29.63R WCI  -6
* MALTA APT    CLOUDY    16   7  67 NW15G21    N/A   WCI   1
* CHESTER      N/A        2  -4  76 NE8G13     N/A   WCI -12
* DENTON       N/A       10   9  96 NW12G19    N/A   WCI  -5
* GEYSER       N/A       18  17  96 SW12G17    N/A   WCI   5
* JUDITH GAP   N/A       50  25  38 W36G49     N/A
* LOMA         N/A        6   0  76 NW19G24    N/A   WCI -14
$$

MTZ017>020-022>027-061-062-290300-
NORTHEAST MONTANA
CITY           SKY/WX    TMP DP  RH WIND       PRES   REMARKS
GLASGOW        CLOUDY    25  19  78 N23       29.48R WCI  10
GLENDIVE       MOCLDY    39  32  76 SW9       29.39F WCI  33
JORDAN         CLOUDY    30  28  92 N13       29.44R WCI  20
SIDNEY         CLOUDY    30  27  89 CALM      29.44R
WOLF POINT     CLOUDY    30  27  89 N6        29.45R WCI  24
* BEAVER HILL  N/A       45  31  58 S14G19     N/A
* CIRCLE       N/A       30  27  89 W6         N/A   WCI  24
* LINDSAY DVD  N/A       36  33  89 NW19G27    N/A   WCI  25
* NAVAJO       N/A       23  22  96 VRB7       N/A   WCI  15
* PLENTYWOOD A CLOUDY    19  18  96 N6        29.43F WCI  11
* POPLAR APT   CLOUDY    27  23  85 N/A       29.43F
* SACO         N/A       18  11  74 NW20G26    N/A   WCI   2
$$

MTZ028>042-056>058-290300-
SOUTHCENTRAL AND SOUTHEAST MONTANA
CITY           SKY/WX    TMP DP  RH WIND       PRES   REMARKS
BAKER          CLOUDY    50  30  46 SW15      29.42F
BILLINGS       PTCLDY    52  21  30 SW13      29.43F
LIVINGSTON     CLOUDY    54  19  25 SW35G44   29.43F
MILES CITY     CLOUDY    46  32  58 S10       29.39F
* BIG TIMBER A MOCLDY    54  18  24 SW13      29.44F
* FORSYTH APT  MOCLDY    55  28  35 SW6       29.41F
* LAUREL APT   PTCLDY    45  21  38 N/A        N/A
* ALZADA       N/A       46  26  46 SE3        N/A
* HYSHAM       N/A       52  21  30 W3         N/A
* LAME DEER    N/A       50  23  35 SW9G15     N/A
* REED POINT   N/A       43  23  45 N/A        N/A
* ROSCOE HILL  N/A       52  -3  10 S22G44     N/A
$$

REGIONAL REPORTS...DAKOTAS
CITY           SKY/WX    TMP DP  RH WIND       PRES   REMARKS
WILLISTON      CLOUDY    19  16  88 N9        29.43R WCI   8
DICKINSON      PTCLDY    37  30  76 S9        29.39F WCI  30
BEACH          CLOUDY    41  32  70 SW10      29.40F
CROSBY         CLOUDY    14  12  92 E8        29.47F WCI   3
TIOGA          CLEAR     16  16 100 E6        29.45S WCI   7
BISMARCK       CLOUDY    16  12  84 E8        29.51F WCI   5
GRAND FORKS    MOCLDY    16  10  77 SE14      29.64F WCI   2
FARGO          MOCLDY    19  10  68 SE14      29.67F WCI   5
BUFFALO SD     MOCLDY    46  30  54 W8        29.41F
RAPID CITY     MOCLDY    45  25  45 W6        29.53F
$$

REGIONAL REPORTS...WYOMING/IDAHO/WASHINGTON
CITY           SKY/WX    TMP DP  RH WIND       PRES   REMARKS
GILLETTE       CLOUDY    50  25  38 SW18      29.57S
SHERIDAN       PTCLDY    57  16  20 CALM      29.50F
CODY           PTCLDY    48  14  25 SW14G22   29.57F
YELLOWSTONE LA CLOUDY    37  10  33 VRB7      29.72F WCI  32
SALMON         PTCLDY    48  21  34 NE5       29.55F
MULLAN PASS    SNOW      30  30 100 S10G24    29.29S VSB M1/4 WCI  21
SAND POINT     RAIN      46  46 100 SW12G17   29.22F
SPOKANE        LGT RAIN  48  43  83 SW30G40   29.24F
$$

REGIONAL REPORTS...ALBERTA
CITY           SKY/WX    TMP DP  RH WIND       PRES   REMARKS
CALGARY        LGT SNOW  -8 -15  71 N21       29.67S VSB 1 1/4 WCI -33
LETHBRIDGE     LGT SNOW  -4  -9  79 NW20      29.72R VSB 1 1/2 WCI -27
MEDICINE HAT   LGT SNOW  -2  -6  83 NW15      29.73S VSB 1 1/2 WCI -22
EDMONTON       N/A      -13 -18  78 NW12      29.83R WCI -34
WATERTON GATE  N/A       -6 -11  78 E7         N/A   WCI -20
CARDSTON       N/A       -6  -9  87 N7         N/A   WCI -20
MILK RIVER     N/A       -6  -9  87 N17        N/A   WCI -28
$$

REGIONAL REPORTS...SASKATCHEWAN
CITY           SKY/WX    TMP DP  RH WIND       PRES   REMARKS
SWIFT CURRENT  LGT SNOW   1   0  95 NW22G29   29.52S VSB 3    WCI -22
REGINA         LGT SNOW  12   9  88 SE7       29.50S WCI   1
VAL MARIE      N/A        7   1  76 N20G26     N/A   WCI -13
ASSINIBOIA     N/A       16  12  84 NW16G22    N/A   WCI   1
CORONACH       N/A       21  19  92 NW16       N/A   WCI   7

$$



USA.gov is the U.S. government's official web portal to all federal, state and local government web resources and services.